This is the latest recevied weather packets stored in our database for station/object W2MMD-13. If no packets are shown the sender has not sent any weather packets the latest 1 day(s).
| Time | Temp. | Humidity | Pressure | Rain* | Wind** | Luminosity | Snow |
|---|---|---|---|---|---|---|---|
| 1778081206 | 20.56° C | 71% | - | 0 mm | - | - | - |
| 1778074731 | 20.56° C | 69% | - | 0 mm | - | - | - |
| 1778074719 | 20.56° C | 69% | - | 0 mm | - | - | - |
| 1778071154 | 20° C | 73% | - | 0 mm | - | - | - |
| 1778070520 | 19.44° C | 76% | - | 0 mm | - | - | - |
| 1778069320 | 18.89° C | 77% | - | 0 mm | - | - | - |
| 1778068120 | 18.33° C | 80% | - | 0 mm | - | - | - |
| 1778067520 | 18.33° C | 79% | - | 0 mm | - | - | - |
| 1778066920 | 18.33° C | 80% | - | 0 mm | - | - | - |
| 1778066320 | 18.33° C | 81% | - | 0 mm | - | - | - |
| 1778065720 | 17.78° C | 81% | - | 0 mm | - | - | - |
| 1778065131 | 17.78° C | 81% | - | 0 mm | - | - | - |
| 1778065120 | 17.78° C | 81% | - | 0 mm | - | - | - |
| 1778064520 | 17.78° C | 82% | - | 0 mm | - | - | - |
| 1778063920 | 17.22° C | 82% | - | 0 mm | - | - | - |
| 1778063331 | 17.22° C | 83% | - | 0 mm | - | - | - |
| 1778063320 | 17.22° C | 83% | - | 0 mm | - | - | - |
| 1778062800 | 16.67° C | 83% | - | 0 mm | - | - | - |
| 1778062720 | 16.67° C | 83% | - | 0 mm | - | - | - |
| 1778062131 | 16.67° C | 83% | - | 0 mm | - | - | - |
| 1778062120 | 16.67° C | 83% | - | 0 mm | - | - | - |
| 1778061520 | 16.67° C | 83% | - | 0 mm | - | - | - |
| 1778060931 | 17.22° C | 83% | - | 0 mm | - | - | - |
| 1778060331 | 17.22° C | 83% | - | 0 mm | - | - | - |
| 1778056119 | 17.78° C | 83% | - | 0 mm | - | - | - |
* Rain latest hour (hover to see other rain measurements)
** Current wind speed in m/s (hover to see current wind gust speed)